Regional Weather Roundup
Issued by NWS Newport/Morehead, NC

Current Version | Previous Version | Text Only | Print | Product List | Glossary On
Versions: 1 2 3 4 5 6 7 8 9 10 11 12 13 14 15 16 17 18 19 20 21 22 23 24 25 26 27 28 29 30 31 32 33 34 35 36 37 38 39 40 41 42 43 44 45 46 47 48 49 50
000
ASUS42 KMHX 292113
RWRMHX
WEATHER ROUNDUP FOR EASTERN NORTH CAROLINA
NATIONAL WEATHER SERVICE NEWPORT/MOREHEAD CITY NC
500 PM EDT MON AUG 29 2016

NOTE: "FAIR" INDICATES FEW OR NO CLOUDS BELOW 12,000 FEET
WITH NO SIGNIFICANT WEATHER AND/OR OBSTRUCTIONS TO VISIBILITY

NCZ015>017-031-032-045>047-102-103-292200-
NORTH COAST

CITY           SKY/WX    TMP DP  RH WIND       PRES   REMARKS
EDENTON        MOSUNNY   86  70  58 E10       30.09R
ELIZABETH CITY MOSUNNY   84  69  60 NE14      30.08S
KITTY HAWK     CLEAR     86  75  69 NE9       30.06F
MANTEO         MOSUNNY   82  72  70 NE12      30.07F

$$

NCZ045>047-081-094-103-104-292200-
CENTRAL COAST

CITY           SKY/WX    TMP DP  RH WIND       PRES   REMARKS
FRISCO         CLOUDY    85  76  74 NE12G18   30.04S

$$

NCZ095-097-098-100-101-292200-
SOUTHERN COAST

CITY           SKY/WX    TMP DP  RH WIND       PRES   REMARKS
BEAUFORT       MOSUNNY   87  75  67 NE9G18    30.03S
CEDAR ISLAND   NOT AVBL
JACKSONVILLE   PTSUNNY   82  73  74 NE23      30.06R THUNDER
PINEY ISLAND   NOT AVBL
WILMINGTON     TSTM      75  74  96 S6        30.06R FOG


$$

NCZ011>013-027>030-043-044-078>080-089-090>093-098-292200-
COASTAL PLAIN

CITY           SKY/WX    TMP DP  RH WIND       PRES   REMARKS
AHOSKIE        CLOUDY    85  70  61 NE3       30.07R
CLINTON        SUNNY     81  79  92 CALM      30.05F
ELIZABETHTOWN  CLOUDY    87  69  54 NW5       30.04F
GOLDSBORO      MOSUNNY   91  71  53 NE12      30.03F
GREENVILLE     CLOUDY    86  73  66 NE8G16    30.08R
HAVELOCK       PTSUNNY   81  72  74 NE14G24   30.07R
KENANSVILLE    LGT RAIN  81  75  83 SE3       30.06R
KINSTON        PTSUNNY   84  73  70 E6        30.07
NEW BERN       TSTM      76  73  91 N9        30.08R
RICHLANDS      CLOUDY    78  76  93 CALM      30.06S
ROCKY MOUNT    MOSUNNY   88  71  57 NE6       30.06S
WASHINGTON     PTSUNNY   83  74  75 NE7       30.07R
WHITEVILLE     CLOUDY    86  68  56 NE3       30.04F

$$

AMZ130-135-150-152-154-156-158-170-250-252-270-ANZ085-086-088-633-658-670-292200-
MARINE OBSERVATIONS

STATION/POSITION TIME  TEMP    WIND        PRES    WAVE   SWELL
                       AIR SEA DIR/SP/G            HT/PER HT/PER
                 (UTC) (F)     (DEG/KT/KT) (MB)    (FT/S) (FT/S)
CHESAPEAKE LIGHT NOT AVBL
64 E VA BEACH    2050   79 81   40/ 14/ 16 1018.0    5/13   3/13
DUCK             2000   80 79   30/ 14/ 16 1017.9
2 E DUCK         2011      81                N/A     5/13   2/13
OREGON INLET     2000   82 81   20/ 12/ 17 1018.0
13E OREGON INLT  2100      81                N/A     5/13   3/13
HATTERAS CG      2000   82 83   30/ 14/ 19 1016.9
DIAMOND BUOY     2050   82 84   40/ 19/ 21 1016.5    6/13   5/13
CAPE LOOKOUT     2100   83      40/ 18/ 21 1016.6
BEAUFORT LAB     2000   86 82   70/  5/ 13 1016.3
30 SE NEW RVR IN 2008   84 85   60/ 14/ 19 1016.7
30 SE NEW RVR IN 2055      84                N/A     4/13   2/13
27 SE WRIGHTSVLE 2008   83 84   30/  6/ 10 1017.0
5 SE WRIGHTSVLE  2008   84 84   90/ 12/ 17 1017.9
225 S CAPE HAT   2050   83 84  320/ 10/ 12 1015.2    4/11   3/11
41 SE CHARLESTON 2050   84 85   50/ 12/ 14 1016.3    3/13   3/13

$$




USA.gov is the U.S. government's official web portal to all federal, state and local government web resources and services.